Regional Weather Roundup
Issued by NWS

Home | Current Version | Previous Version | Graphics & Text | Print | Product List | Glossary On
Versions: 1 2 3 4 5 6 7 8 9 10 11 12 13 14 15 16 17 18 19 20 21 22 23 24 25 26 27 28 29 30 31 32 33 34 35 36 37 38 39 40 41 42 43 44 45 46 47 48 49 50
000
ASUS43 KLSX 310559
RWRMO

WEATHER SUMMARY FOR MISSOURI
NATIONAL WEATHER SERVICE SPRINGFIELD MO
100 AM CDT THU JUL 31 2014

NOTE: "FAIR" INDICATES FEW OR NO CLOUDS BELOW 12,000 FEET WITH NO
       SIGNIFICANT WEATHER AND/OR OBSTRUCTIONS TO VISIBILITY.
       CURRENT SKY AND/OR WEATHER CONDITIONS ARE NOT AVAILABLE FOR
       CHILLICOTHE AND FARMINGTON.

MOZ001>031-035>038-043-044-053-054-310700-
...NORTHERN AND WESTERN MISSOURI...

CITY           SKY/WX    TMP DP  RH WIND       PRES   REMARKS
KANSAS CTY INT PTCLDY    66  56  70 CALM      30.11S
6HR MIN TEMP:  66; 6HR MAX TEMP:  79;

KANSAS C DTWN  CLEAR     67  60  78 CALM      30.10R
6HR MIN TEMP:  67; 6HR MAX TEMP:  79;

LEE`S SUMMIT   CLEAR     65  61  87 SW3       30.11S
6HR MIN TEMP:  65; 6HR MAX TEMP:  78;

ST JOSEPH      CLEAR     58  56  93 CALM      30.11S
6HR MIN TEMP:  58; 6HR MAX TEMP:  79;

CHILLICOTHE      N/A     61  57  87 CALM      30.11S
6HR MIN TEMP:  61; 6HR MAX TEMP:  81;

KIRKSVILLE     CLEAR     58  56  93 CALM      30.11S FOG
6HR MIN TEMP:  57; 6HR MAX TEMP:  78;


$$
MOZ066>068-077>081-088>096-101>105-310700-
...SOUTHWEST MISSOURI...

CITY           SKY/WX    TMP DP  RH WIND       PRES   REMARKS
SPRINGFIELD    CLOUDY    67  65  93 N5        30.10S
6HR MIN TEMP:  66; 6HR MAX TEMP:  69; 6HR PCP:  0.02;

JOPLIN         CLOUDY    66  65  96 CALM      30.10S
6HR MIN TEMP:  66; 6HR MAX TEMP:  67; 6HR PCP:  0.04;


$$
MOZ032>034-039>042-045>050-055>058-069>072-310700-
...CENTRAL MISSOURI...

CITY           SKY/WX    TMP DP  RH WIND       PRES   REMARKS
COLUMBIA       CLEAR     66  60  81 CALM      30.10R
6HR MIN TEMP:  65; 6HR MAX TEMP:  79;

JEFFERSON CITY PTCLDY    64  59  83 CALM      30.09R
6HR MIN TEMP:  63; 6HR MAX TEMP:  77;

ROLLA          MOCLDY    60  58  92 CALM      30.09R
6HR MIN TEMP:  59; 6HR MAX TEMP:  73;

SEDALIA        CLEAR     65  60  84 W3        30.10S
6HR MIN TEMP:  64; 6HR MAX TEMP:  75;

OSAGE BEACH    PTCLDY    61  57  88 CALM      30.10S

$$
MOZ051-052-059>065-310700-
...EAST CENTRAL MISSOURI...

CITY           SKY/WX    TMP DP  RH WIND       PRES   REMARKS
ST LOUIS INTL  MOCLDY    73  59  61 CALM      30.08S
6HR MIN TEMP:  73; 6HR MAX TEMP:  81;

SPIRIT OF STL  MOCLDY    64  61  90 CALM      30.07R
6HR MIN TEMP:  63; 6HR MAX TEMP:  81;

ST CHARLES     CLEAR     63  61  93 N5        30.07S
6HR MIN TEMP:  62; 6HR MAX TEMP:  80;


$$
MOZ072>076-082>087-097>100-106>115-310700-
...SOUTH CENTRAL AND SOUTHEAST MISSOURI...

CITY           SKY/WX    TMP DP  RH WIND       PRES   REMARKS
CAPE GIRARDEAU PTCLDY    64  61  90 CALM      30.07S
6HR MIN TEMP:  63; 6HR MAX TEMP:  74;

FARMINGTON     PTCLDY    63  61  94 CALM      30.11S
6HR MIN TEMP:  63; 6HR MAX TEMP:  73;

POPLAR BLUFF   MOCLDY    66  62  87 CALM      30.06F
6HR MIN TEMP:  66; 6HR MAX TEMP:  74;

WEST PLAINS    CLOUDY    66  64  93 CALM      30.10F FOG
6HR MIN TEMP:  65; 6HR MAX TEMP:  68; 6HR PCP:  0.01;


$$


USA.gov is the U.S. government's official web portal to all federal, state and local government web resources and services.